www.pogodaiklimat.ru

Погода и климат >> Архив погоды >> Антарктида >> Casey Snyder Rocks


ПОГОДА в Casey Snyder Rocks

  • Прогноз погоды в Casey Snyder Rocks
  • Монитор погоды в Casey Snyder Rocks
  • Климат города

АРХИВ ПОГОДЫ в Casey Snyder Rocks

Время (UTC), дата Ветер
(напр.,м/с)
 
Видим.   Явления Облачность Т
(С)
Тd
(С)
f
(%)
Тe
(С)
Тes
(С)
Комфортность P
(гПа)
Po
(гПа)
Тmin
(С)
Tmax
(С)
R
(мм)
R24
(мм)
S
(см)
23 13.05 Ю 23
{32}
н/о н/о -25.4
22 13.05 0
{33}
н/о 980.0
00 14.05 Ю 20
{33}
н/о н/о -26.0 982.4
01 14.05 Ю 12
{34}
н/о н/о -25.6 982.4
03 14.05 0 н/о н/о -24.9 981.2
08 14.05 Ю 11
{30}
н/о н/о -23.9 985.9
09 14.05 Ю 10
{27}
н/о н/о -23.4 984.7
11 14.05 0 н/о
10 14.05 ЮВ 7
{26}
н/о н/о -23.3 984.7
12 14.05 ЮВ 6
{25}
н/о н/о -23.2 985.9
13 14.05 0 н/о 985.9
14 14.05 Ю 9
{24}
н/о н/о -22.7 985.9
15 14.05 Ю 7
{23}
н/о н/о -23.9 985.9
17 14.05 0
{22}
н/о
18 14.05 0
{22}
н/о н/о -22.3 983.5
19 14.05 ЮВ 9
{24}
н/о н/о -22.7 981.2
20 14.05 Ю 10
{24}
н/о н/о -22.8 980.0
21 14.05 ЮВ 7
{23}
н/о н/о -22.8 980.0
23 14.05 ЮВ 6
{25}
н/о н/о -21.9 978.8
00 15.05 В 7
{25}
н/о н/о -21.7 976.5
02 15.05 В 5
{27}
н/о н/о -21.6 975.3
01 15.05 В 5
{27}
н/о н/о -22.2 976.5
03 15.05 В 4
{28}
н/о н/о -21.5 975.3
04 15.05 ЮВ 5
{30}
н/о н/о -20.6 974.1
07 15.05 В 5
{30}
н/о н/о -20.4 976.5
09 15.05 СВ 5
{30}
н/о н/о -20.4 976.5
11 15.05 ЮВ 5
{30}
н/о н/о -20.4 977.7
12 15.05 В 4
{28}
н/о н/о -20.3 978.8
13 15.05 В 6
{29}
н/о н/о -20.6 980.0
14 15.05 СВ 4
{28}
н/о н/о -20.0 981.2
15 15.05 СВ 7
{27}
н/о н/о -20.8 981.2
16 15.05 0 н/о 981.2
21 15.05 С 15
{25}
н/о н/о -21.0 984.7
23 15.05 СВ 2
{26}
н/о н/о -21.2 984.7
22 15.05 0 н/о
00 16.05 С 7
{23}
н/о н/о -21.4 985.9
01 16.05 СВ 5
{23}
н/о н/о -21.4 984.7
03 16.05 С 9
{23}
н/о н/о -21.7 985.9
05 16.05 СВ 2
{20}
н/о н/о -21.2 985.9
07 16.05 С 12
{19}
н/о н/о -21.0 985.9
09 16.05 Ю 3
{20}
н/о н/о -21.3 985.9
10 16.05 0
{20}
н/о н/о -21.4 985.9
11 16.05 СВ 3
{20}
н/о н/о -21.3 985.9
12 16.05 С 5
{21}
н/о н/о -21.1 985.9
13 16.05 Ю 7
{22}
н/о н/о -21.5 985.9
14 16.05 Ю 8
{23}
н/о н/о -21.5 985.9
15 16.05 Ю 13
{22}
н/о н/о -21.3 985.9
16 16.05 Ю 12
{23}
н/о н/о -21.7 985.9
17 16.05 0
{22}
н/о 987.1
18 16.05 18
{23}
н/о н/о -21.4 987.1
19 16.05 Ю 14
{23}
н/о н/о -21.6 985.9
20 16.05 Ю 17
{24}
н/о н/о -21.7 985.9
21 16.05 Ю 19
{24}
н/о н/о -21.8 985.9
22 16.05 0 н/о 985.9
23 16.05 Ю 19
{22}
н/о н/о -21.3 987.1
00 17.05 Ю 18
{22}
н/о н/о -20.5 987.1
01 17.05 Ю 19
{23}
н/о н/о -20.4 985.9
02 17.05 Ю 18
{22}
н/о н/о -19.6 985.9
03 17.05 0
{23}
н/о 985.9
04 17.05 Ю 19
{22}
н/о н/о -20.0 985.9
05 17.05 0 н/о 985.9
07 17.05 Ю 17
{22}
н/о н/о -18.5 987.1
08 17.05 Ю 16
{19}
н/о н/о -17.5 987.1
09 17.05 Ю 16
{20}
н/о н/о -18.5 987.1
10 17.05 Ю 16
{19}
н/о н/о -17.9 988.2
12 17.05 Ю 14
{17}
н/о н/о -18.3 989.4
13 17.05 Ю 15
{20}
н/о н/о -18.3 989.4
14 17.05 Ю 14
{17}
н/о н/о -18.5 989.4
15 17.05 Ю 15
{19}
н/о н/о -18.5 989.4
17 17.05 Ю 13
{15}
н/о н/о -17.6 990.6
16 17.05 Ю 15
{19}
н/о н/о -17.9 990.6
18 17.05 Ю 14
{18}
н/о н/о -18.4 990.6
19 17.05 Ю 14
{16}
н/о н/о -18.0 991.8
20 17.05 Ю 12
{16}
н/о н/о -17.8 991.8
21 17.05 0
{14}
н/о 991.8
23 17.05 Ю 10
{13}
н/о н/о -17.3 991.8
22 17.05 Ю 10
{12}
н/о н/о -16.7 991.8
00 18.05 0
{15}
н/о 991.8
01 18.05 Ю 11
{15}
н/о н/о -16.9 992.9
02 18.05 Ю 10
{14}
н/о н/о -17.1 992.9
03 18.05 Ю 11
{14}
н/о н/о -17.2 992.9
07 18.05 Ю 9
{15}
н/о н/о -16.7 994.1
09 18.05 Ю 15
{19}
н/о н/о -17.1
10 18.05 0 н/о
11 18.05 Ю 16
{21}
н/о н/о -17.4 995.3
12 18.05 0 н/о 996.5
13 18.05 Ю 16
{19}
н/о н/о -17.7 996.5
15 18.05 Ю 4
{19}
н/о н/о -17.4 997.7
16 18.05 Ю 14
{17}
н/о н/о -17.5 997.7
18 18.05 Ю 12
{15}
н/о н/о -16.7 998.8
19 18.05 Ю 11
{14}
н/о н/о -16.7 998.8
20 18.05 Ю 11
{13}
н/о н/о -16.4 998.8
21 18.05 Ю 11
{13}
н/о н/о -16.7 998.8
23 18.05 Ю 10
{12}
н/о н/о -17.1 998.8
00 19.05 Ю 11
{13}
н/о н/о -16.7 997.7
02 19.05 Ю 10
{11}
н/о н/о -16.0 997.7
01 19.05 Ю 9
{12}
н/о н/о -16.7 997.7
07 19.05 Ю 10
{12}
н/о н/о -15.8 995.3
08 19.05 0 н/о
11 19.05 Ю 10
{12}
н/о н/о -15.1 991.8
10 19.05 0
{11}
н/о н/о -15.3
12 19.05 Ю 11
{13}
н/о н/о -14.9 990.6
13 19.05 Ю 12
{14}
н/о н/о -15.1 989.4
14 19.05 Ю 11
{15}
н/о н/о -15.0 989.4
15 19.05 Ю 10
{13}
н/о н/о -15.1 988.2
17 19.05 Ю 12
{17}
н/о н/о -15.2 987.1
18 19.05 Ю 14
{16}
н/о н/о -16.2 986.0
20 19.05 Ю 12
{15}
н/о н/о -16.1 984.7
21 19.05 Ю 13
{16}
н/о н/о -16.4 983.5
22 19.05 Ю 13
{15}
н/о н/о -16.2 982.4
23 19.05 Ю 16
{19}
н/о н/о -16.2 980.0
00 20.05 Ю 16
{19}
н/о н/о -16.7 980.0
02 20.05 Ю 15
{20}
н/о н/о -17.1 978.8
01 20.05 Ю 15
{20}
н/о н/о -17.2 980.0
03 20.05 0
{21}
н/о н/о -17.6 978.8
04 20.05 Ю 12
{23}
н/о н/о -16.6 977.7
05 20.05 0
{22}
н/о н/о -17.3 977.7
06 20.05 Ю 4
{22}
н/о н/о -17.4 977.7
08 20.05 В 5
{25}
н/о н/о -18.7 976.5
10 20.05 В 5
{24}
н/о н/о -18.2 977.7
11 20.05 ЮВ 6
{24}
н/о н/о -18.3 978.8
12 20.05 ЮВ 8
{24}
н/о н/о -18.4 978.8
15 20.05 Ю 9
{17}
н/о н/о -18.2 978.8

 

Местоположение метеостанции Casey Snyder Rocks (Антарктида): широта -66.55 долгота 107.75 высота над уровнем моря 42 м.

В архиве по умолчанию представлена погода в Casey Snyder Rocks за последнюю неделю. Архивные данные за месяц целиком и за предыдущие месяцы, начиная с января 2011 года, Вы можете получить, выбрав интересующий диапазон дат из раскрывающегося списка и нажав кнопку "Ввод!".


*Определитесь, кто Вы:
робот инопланетянин человек

Внимание! Время в таблицах - всемирное. Для получения местного времени необходимо прибавить поправку, которая в Casey Snyder Rocks равна 0 ч.

Смотрите также архив погоды в соседних городах и на ближайших метеорологических станциях:

Погода в Casey (Антарктида) (126 км)
Погода в Casey Skiway South (Антарктида) (138 км)
Погода в Casey (Peterson air) (Антарктида) (152 км)
Погода в Wilkins Runway East (Антарктида) (167 км)
Погода в Oazic Bangera (Антарктида) (313 км)
Погода в Mirnyj (Антарктида) (650 км)
Погода в Dome C II (Антарктида) (1103 км)
Погода в Vostok (Антарктида) (1326 км)

Пояснения к столбцам:

Ветер - указаны скорость ветра в м/с - средняя за 10 мин, порывы в срок и между сроками (в фигурных скобках) и направление, откуда дует ветер: С - северный, СВ - северо-восточный, В - восточный, ЮВ - юго-восточный, Ю - южный, ЮЗ - юго-западный, З - западный, СЗ - северо-западный.
Видимость - горизонтальная дальность видимости в метрах или километрах. При видимости от 1 до 10 км при отсутствии осадков обычно наблюдается дымка, при ухудшении видимости до 1 км и менее - туман. В сухую погоду видимость может ухудшаться дымом, пылью или мглою.
Явления - указаны атмосферные явления, наблюдавшиеся в срок или в последний час перед сроком; фигурными скобками обозначены явления, наблюдавшиеся между сроками (за 1-3 часа до срока); квадратными скобками обозначены град или гололедные отложения с указанием их диаметра в мм.
Облачность - указаны через наклонную черту общая и нижняя облачность в баллах и высота нижней границы облаков в метрах; квадратными скобками обозначены формы облаков: Ci - перистые, Cs - перисто-слоистые, Cc - перисто-кучевые, Ac - высококучевые, As - высокослоистые, Sc - слоисто-кучевые, Ns - слоисто-дождевые, Cu - кучевые, Cb - кучево-дождевые. Подробнее классификацию облаков см. в Атласе облаков (PDF).
T - Температура воздуха - температура, измеренная на высоте 2 м над землей.
Td - Температура точки росы - температура, при понижении до которой содержащийся в воздухе водяной пар достигнет насыщения.
f - Относительная влажность воздуха - влажноcть воздуха, измеренная на высоте 2 м над землей.
Te - Эффективная температура - температура, которую ощущает одетый по сезону человек в тени. Характеристика душности погоды. При расчете учитывается влияние влажности воздуха и скорости ветра на теплоощущения человека.
Tes - Эффективная температура на солнце - температура, которую ощущает человек, с поправкой на солнечный нагрев. Характеристика знойности погоды. Зависит от высоты солнца над горизонтом, облачности и скорости ветра. Ночью, в пасмурную погоду, а также при ветре 12 м/с и более поправка равна нулю.
P - Атмосферное давление - приведенное к уровню моря атмосферное давление.
Po - Атмосферное давление - измеренное на уровне метеостанции атмосферное давление.
Tmin - Минимальная температура - минимум температуры воздуха на высоте 2 м над землей.
Tmax - Максимальная температура - максимум температуры воздуха на высоте 2 м над землей.
R - Количество осадков - Количество выпавших осадков за период времени, мм. При наведении курсора мыши на число - период времени, за который выпало указанное количество осадков.
R24 - Количество осадков - Количество выпавших осадков за 24 часа, мм.
S - Снежный покров - Высота снежного покрова, см. При наведении курсора мыши на число - состояние снежного покрова и степень покрытия местности в баллах.